This is the latest recevied weather packets stored in our database for station/object KE8ZLU. If no packets are shown the sender has not sent any weather packets the latest 10 day(s).
| Time | Temp. | Humidity | Pressure | Rain* | Wind** | Luminosity | Snow |
|---|---|---|---|---|---|---|---|
| 1777462971 | 7.78° C | 95% | 1014.7 hPa | 0 mm | - | 30 W/m² | - |
| 1777462667 | 7.78° C | 95% | 1014.7 hPa | 0 mm | - | 18 W/m² | - |
| 1777462362 | 7.78° C | 95% | 1014.6 hPa | 0 mm | - | 10 W/m² | - |
| 1777462058 | 7.78° C | 96% | 1014.6 hPa | 0 mm | - | 12 W/m² | - |
| 1777461756 | 7.78° C | 96% | 1014.5 hPa | 0 mm | - | 13 W/m² | - |
| 1777461450 | 7.78° C | 96% | 1014.5 hPa | 1.78 mm | - | 9 W/m² | - |
| 1777461148 | 7.78° C | 96% | 1014.5 hPa | 1.78 mm | - | 9 W/m² | - |
| 1777460842 | 7.78° C | 96% | 1014.7 hPa | 0 mm | - | 7 W/m² | - |
| 1777460539 | 8.33° C | 95% | 1014.8 hPa | 0 mm | - | 1 W/m² | - |
| 1777460234 | 8.33° C | 95% | 1014.7 hPa | 0 mm | - | 1 W/m² | - |
| 1777459932 | 8.33° C | 95% | 1014.8 hPa | 1.27 mm | - | 1 W/m² | - |
| 1777459629 | 8.33° C | 95% | 1014.6 hPa | 1.27 mm | - | 1 W/m² | - |
| 1777459325 | 8.33° C | 94% | 1014.6 hPa | 0 mm | - | 1 W/m² | - |
| 1777459023 | 8.33° C | 92% | 1014.7 hPa | 1.78 mm | - | 0 W/m² | - |
| 1777458721 | 8.33° C | 92% | 1014.6 hPa | 3.05 mm | - | 0 W/m² | - |
| 1777458417 | 8.33° C | 93% | 1014.4 hPa | 3.05 mm | - | 0 W/m² | - |
| 1777458114 | 8.33° C | 92% | 1014.2 hPa | 1.78 mm | - | 0 W/m² | - |
| 1777457809 | 8.89° C | 90% | 1014.1 hPa | 1.78 mm | - | 0 W/m² | - |
| 1777457509 | 8.89° C | 89% | 1014 hPa | 1.78 mm | - | 0 W/m² | - |
| 1777457205 | 8.89° C | 88% | 1013.4 hPa | 1.27 mm | - | 0 W/m² | - |
| 1777456900 | 8.89° C | 86% | 1013.6 hPa | 1.27 mm | - | 0 W/m² | - |
| 1777456596 | 8.89° C | 86% | 1013.7 hPa | 0 mm | - | 0 W/m² | - |
| 1777456291 | 8.89° C | 85% | 1013.8 hPa | 0 mm | - | 0 W/m² | - |
| 1777455987 | 9.44° C | 85% | 1013.6 hPa | 0 mm | - | 0 W/m² | - |
| 1777455684 | 9.44° C | 84% | 1013.6 hPa | 0 mm | - | 0 W/m² | - |
* Rain latest hour (hover to see other rain measurements)
** Current wind speed in m/s (hover to see current wind gust speed)